Location: Central Falls
(41.8900°N, 71.3929°W)
Time: 14:58:42
(UTC+00:00)

Vanguard 1 - Pass Details

Date: 05 December 2023
Orbit: 653 x 3826 km, 34.3° (Epoch: 24 February)

Event Time Altitude Azimuth Distance (km) Brightness Sun altitude
Rises 18:57:28 0° 169° (S) 4,810 14.3 17.9°
Reaches altitude 10° 19:03:46 10° 140° (SE) 4,570 13.7 17.2°
Maximum altitude 19:07:44 12° 121° (ESE) 4,851 13.6 16.8°
Drops below altitude 10° 19:12:19 10° 104° (ESE) 5,468 13.7 16.3°
Sets 19:22:23 0° 80° (E) 7,302 14.1 15.1°
